www.pogodaiklimat.ru

Погода и климат >> Архив погоды >> Пакистан >> Пад Идан


ПОГОДА в Пад Идан

  • Прогноз погоды в Пад Идан
  • Монитор погоды в Пад Идан

АРХИВ ПОГОДЫ в Пад Идан

Время (UTC), дата Ветер
(напр.,м/с)
 
Видим.   Явления Облачность Т
(С)
Тd
(С)
f
(%)
Тe
(С)
Тes
(С)
Комфортность P
(гПа)
Po
(гПа)
Тmin
(С)
Tmax
(С)
R
(мм)
R24
(мм)
S
(см)
06 19.08 Ю 1 4000 м ясно +33.0 +26.1 67 +49 +72 опасность
перегрева
1005.1 1000.0
09 19.08 Ю 1 4000 м ясно +37.0 +26.8 56 +54 +77 опасность
перегрева
1002.4 1000.0
12 19.08 Ю 2 4000 м 3/0
[Ci fib]
+36.0 +26.4 58 +53 +56 опасность
перегрева
1001.9 996.8 +38.1
15 19.08 Ю 2 4000 м 5/0
[Ci fib]
+34.0 +25.7 62 +49 +49 опасность
перегрева
1003.1 997.9
18 19.08 Ю 1 4000 м ясно +30.0 +25.8 78 +45 +45 опасность
перегрева
1004.4 1000.0
21 19.08 Ю 1 4000 м мгла ясно +28.0 +24.4 81 +39 +39 очень
душно
1004.0 1000.0
00 20.08 Ю 1 4000 м мгла ясно +26.5 +24.4 88 +37 +37 очень
душно
1002.1 996.9
03 20.08 Ю 1 4000 м мгла ясно +28.0 +25.2 85 +41 +46 опасность
перегрева
1005.1 999.9 +26.1
06 20.08 Ю 1 4000 м ясно +34.0 +25.7 62 +49 +72 опасность
перегрева
1006.6 1000.0
09 20.08 Ю 1 4000 м ясно +38.0 +26.1 51 +53 +76 опасность
перегрева
1004.3 1000.0
12 20.08 Ю 1 4000 м ясно +37.0 +26.8 56 +54 +59 опасность
перегрева
1002.3 997.2 +38.5
15 20.08 Ю 1 4000 м ясно +33.5 +25.9 65 +49 +49 опасность
перегрева
1003.1 997.9
18 20.08 ЮВ 1 4000 м 3/0
[Ac trans]
+30.0 +25.1 75 +43 +43 опасность
перегрева
1004.2 1000.0
21 20.08 ЮВ 1 4000 м ясно +28.0 +24.4 81 +39 +39 очень
душно
1002.8 1000.0
00 21.08 ЮВ 1 4000 м ясно +26.5 +23.6 84 +36 +36 очень
душно
1002.0 996.8
03 21.08 В 1 4000 м ясно +28.0 +24.4 81 +39 +45 очень
душно
1002.7 997.5 +25.5
06 21.08 Ю 1 4000 м ясно +33.5 +26.6 67 +50 +73 опасность
перегрева
1004.0 1000.0
09 21.08 Ю 1 4000 м ясно +37.0 +27.6 59 +56 +79 опасность
перегрева
1001.7 1000.0
12 21.08 Ю 1 4000 м ясно +37.0 +26.0 53 +52 +56 опасность
перегрева
999.8 994.7 +38.5
15 21.08 Ю 1 4000 м ясно +34.0 +26.5 65 +51 +51 опасность
перегрева
1000.7 1000.0
18 21.08 Ю 1 4000 м ясно +30.0 +24.3 72 +42 +42 опасность
перегрева
1001.8 1000.0
21 21.08 Ю 1 4000 м ясно +28.0 +24.4 81 +39 +39 очень
душно
1001.1 1000.0
00 22.08 Ю 1 4000 м ясно +26.0 +23.1 84 +35 +35 очень
душно
1000.5 995.3
03 22.08 ЮВ 1 4000 м ясно +27.5 +24.7 85 +39 +44 очень
душно
1002.2 997.0 +25.1
06 22.08 Ю 1 4000 м ясно +34.0 +24.9 59 +47 +70 опасность
перегрева
1003.6 1000.0
09 22.08 Ю 1 4000 м ясно +37.0 +26.0 53 +52 +74 опасность
перегрева
1001.5 1000.0
12 22.08 Ю 1 4000 м ясно +37.0 +26.8 56 +54 +59 опасность
перегрева
999.7 994.6 +38.5
15 22.08 Ю 1 4000 м ясно +33.5 +25.9 65 +49 +49 опасность
перегрева
1000.6 1000.0
18 22.08 ЮВ 1 4000 м ясно +30.0 +25.1 75 +43 +43 опасность
перегрева
1002.5 997.2
21 22.08 ЮВ 1 4000 м 3/0
[Ac trans]
+28.0 +24.4 81 +39 +39 очень
душно
1001.6 1000.0
00 23.08 ЮВ 1 4000 м ясно +26.0 +23.1 84 +35 +35 очень
душно
1000.9 995.7
03 23.08 ЮВ 1 4000 м ясно +28.0 +23.7 77 +38 +43 очень
душно
1002.5 997.3 +25.5
06 23.08 штиль 0 4000 м ясно +34.0 +24.9 59 +47 +71 опасность
перегрева
1004.1 1000.0
09 23.08 Ю 1 4000 м ясно +37.5 +25.3 50 +51 +73 опасность
перегрева
1002.3 1000.0
12 23.08 Ю 1 4000 м ясно +37.5 +25.3 50 +51 +56 опасность
перегрева
1000.3 995.2 +38.5
15 23.08 Ю 1 4000 м ясно +34.0 +24.9 59 +47 +47 опасность
перегрева
1001.7 1000.0
18 23.08 Ю 1 4000 м ясно +30.0 +24.3 72 +42 +42 опасность
перегрева
1002.7 997.5
00 24.08 Ю 1 4000 м ясно +27.0 +23.4 81 +37 +37 очень
душно
1001.0 995.8
03 24.08 Ю 1 4000 м ясно +29.0 +24.0 74 +40 +45 очень
душно
1002.1 996.9 +26.0
06 24.08 ЮВ 1 4000 м ясно +34.0 +25.7 62 +49 +71 опасность
перегрева
1003.9 1000.0
09 24.08 ЮВ 1 4000 м ясно +38.0 +25.7 50 +53 +75 опасность
перегрева
1001.7 1000.0
12 24.08 Ю 1 4000 м ясно +37.0 +26.0 53 +52 +57 опасность
перегрева
1000.1 1000.0 +39.1
15 24.08 Ю 1 4000 м ясно +33.0 +26.1 67 +49 +49 опасность
перегрева
1001.3 1000.0
18 24.08 Ю 1 4000 м ясно +30.0 +24.5 72 +42 +42 опасность
перегрева
1001.8 1000.0
21 24.08 Ю 1 4000 м ясно +27.0 +22.6 77 +36 +36 очень
душно
1000.3 1000.0
00 25.08 Ю 1 4000 м ясно +26.5 +22.9 81 +35 +35 очень
душно
1000.2 995.0
03 25.08 Ю 1 4000 м ясно +27.5 +23.1 77 +37 +42 очень
душно
1001.7 996.5 +25.5
06 25.08 Ю 1 4000 м ясно +34.0 +24.9 59 +47 +68 опасность
перегрева
1002.8 997.7
09 25.08 Ю 1 4000 м ясно +37.5 +25.3 50 +51 +73 опасность
перегрева
1001.0 1000.0
12 25.08 Ю 1 4000 м 3/0
[Ci fib]
+37.5 +25.3 50 +51 +56 опасность
перегрева
999.5 994.4 +38.5
15 25.08 Ю 1 4000 м 3/0
[Ci fib]
+33.0 +26.1 67 +49 +49 опасность
перегрева
1000.7 1000.0
18 25.08 Ю 1 4000 м ясно +30.0 +24.3 72 +42 +42 опасность
перегрева
1001.7 1000.0
21 25.08 Ю 1 4000 м ясно +27.5 +23.1 77 +37 +37 очень
душно
1000.8 995.5
00 26.08 Ю 1 4000 м ясно +26.0 +22.3 80 +34 +34 очень
душно
1000.3 995.1

 

Местоположение метеостанции Пад Идан (Пакистан): широта 26.85 долгота 68.13 высота над уровнем моря 47 м.

В архиве по умолчанию представлена погода в Пад Идан за последнюю неделю. Архивные данные за месяц целиком и за предыдущие месяцы, начиная с января 2011 года, Вы можете получить, выбрав интересующий диапазон дат из раскрывающегося списка и нажав кнопку "Ввод!".


*Определитесь, кто Вы:
робот инопланетянин человек

Внимание! Время в таблицах - всемирное. Для получения местного времени необходимо прибавить поправку, которая равна 5 ч.

Смотрите также архив погоды в соседних городах и на ближайших метеорологических станциях:

Погода в Мохенджо-Даро (Пакистан) (52 км)
Погода в Навабшахе (Пакистан) (71 км)
Погода в Ларкане (Пакистан) (78 км)
Погода в Суккуре (Пакистан) (115 км)
Погода в Рохри (Пакистан) (119 км)
Погода в Даду (Пакистан) (138 км)
Погода в Джейкобабаде (Пакистан) (165 км)
Погода в Хайдарабате (Пакистан) (166 км)
Погода в Мир Пур Кхас (Пакистан) (170 км)
Погода в Хуздаре (Пакистан) (184 км)

Пояснения к столбцам:

Ветер - указаны скорость ветра в м/с - средняя за 10 мин, порывы в срок и между сроками (в фигурных скобках) и направление, откуда дует ветер: С - северный, СВ - северо-восточный, В - восточный, ЮВ - юго-восточный, Ю - южный, ЮЗ - юго-западный, З - западный, СЗ - северо-западный.
Видимость - горизонтальная дальность видимости в метрах или километрах. При видимости от 1 до 10 км при отсутствии осадков обычно наблюдается дымка, при ухудшении видимости до 1 км и менее - туман. В сухую погоду видимость может ухудшаться дымом, пылью или мглою.
Явления - указаны атмосферные явления, наблюдавшиеся в срок или в последний час перед сроком; фигурными скобками обозначены явления, наблюдавшиеся между сроками (за 1-3 часа до срока); квадратными скобками обозначены град или гололедные отложения с указанием их диаметра в мм.
Облачность - указаны через наклонную черту общая и нижняя облачность в баллах и высота нижней границы облаков в метрах; квадратными скобками обозначены формы облаков: Ci - перистые, Cs - перисто-слоистые, Cc - перисто-кучевые, Ac - высококучевые, As - высокослоистые, Sc - слоисто-кучевые, Ns - слоисто-дождевые, Cu - кучевые, Cb - кучево-дождевые. Подробнее классификацию облаков см. в Атласе облаков (PDF).
T - Температура воздуха - температура, измеренная на высоте 2 м над землей.
Td - Температура точки росы - температура, при понижении до которой содержащийся в воздухе водяной пар достигнет насыщения.
f - Относительная влажность воздуха - влажноcть воздуха, измеренная на высоте 2 м над землей.
Te - Эффективная температура - температура, которую ощущает одетый по сезону человек в тени. Характеристика душности погоды. При расчете учитывается влияние влажности воздуха и скорости ветра на теплоощущения человека.
Tes - Эффективная температура на солнце - температура, которую ощущает человек, с поправкой на солнечный нагрев. Характеристика знойности погоды. Зависит от высоты солнца над горизонтом, облачности и скорости ветра. Ночью, в пасмурную погоду, а также при ветре 12 м/с и более поправка равна нулю.
P - Атмосферное давление - приведенное к уровню моря атмосферное давление.
Po - Атмосферное давление - измеренное на уровне метеостанции атмосферное давление.
Tmin - Минимальная температура - минимум температуры воздуха на высоте 2 м над землей.
Tmax - Максимальная температура - максимум температуры воздуха на высоте 2 м над землей.
R - Количество осадков - Количество выпавших осадков за период времени, мм. При наведении курсора мыши на число - период времени, за который выпало указанное количество осадков.
R24 - Количество осадков - Количество выпавших осадков за 24 часа, мм.
S - Снежный покров - Высота снежного покрова, см. При наведении курсора мыши на число - состояние снежного покрова и степень покрытия местности в баллах.